Regional Weather Roundup
Issued by NWS Burlington, VT

Current Version | Previous Version | Text Only | Print | Product List | Glossary On
Versions: 1 2 3 4 5 6 7 8 9 10 11 12 13 14 15 16 17 18 19 20 21 22 23 24 25 26 27 28 29 30 31 32 33 34 35 36 37 38 39 40 41 42 43 44 45 46 47 48 49 50
000
ASUS41 KBTV 292030
RWRBTV
VERMONT REGIONAL WEATHER ROUNDUP
NATIONAL WEATHER SERVICE BURLINGTON VT
400 PM EDT SAT AUG 29 2015

NOTE: "FAIR" INDICATES FEW OR NO CLOUDS BELOW 12,000 FEET WITH NO
SIGNIFICANT WEATHER AND/OR OBSTRUCTIONS TO VISIBILITY.

* THESE REPORTS ARE NOT UNDER NWS QUALITY CONTROL AND/OR DO NOT
  REPORT WEATHER SUCH AS PRECIPITATION AND FOG.

VTZ001>019-292100-
_____VERMONT_____


CITY           SKY/WX    TMP DP  RH WIND       PRES   REMARKS
BURLINGTON     PTSUNNY   77  55  46 S7        30.08F
MONTPELIER     MOSUNNY   74  55  51 VRB5      30.15F
MORRISVILLE    PTSUNNY   75  55  49 E3        30.12F
ST. JOHNSBURY*   N/A     75  53  46 MISG      30.08F
LYNDONVILLE*   FAIR      73  56  54 CALM      30.13S
MIDDLEBURY*    FAIR      79  53  41 S7        30.09F
RUTLAND*       MOSUNNY   75  54  46 W8        30.14F
SPRINGFIELD    PTSUNNY   78  55  44 S8        30.11F
HIGHGATE*      FAIR      73  61  66 CALM      30.08S HAZE
NEWPORT*       FAIR      69  58  65 SW3       30.12F
BENNINGTON     PTSUNNY   77  56  48 SW10      30.13F
SUTTON*          N/A     72 N/A N/A MISG        N/A
GALLUP MILLS*    N/A     72 N/A N/A MISG        N/A
MT. MANSFIELD*   N/A     61 N/A N/A NW9         N/A

_____LAKE CHAMPLAIN_____


CITY           SKY/WX    TMP DP  RH WIND       PRES   REMARKS
COLCHESTER RF*   N/A    N/A N/A N/A S9          N/A
DIAMOND ISL*     N/A     75  59  57 S3          N/A

$$

NYZ007-026>031-035-052-083-292100-
_____NORTHERN NEW YORK_____


CITY           SKY/WX    TMP DP  RH WIND       PRES   REMARKS
PLATTSBURGH    PTSUNNY   74  60  61 S7        30.07F
SARANAC LAKE   PTSUNNY   74  53  48 W10       30.12S
MASSENA        CLOUDY    74  60  61 W9        30.09F
OGDENSBURG*    SUNNY     75  61  60 SW8       30.08F
POTSDAM*       SUNNY     73  63  68 W14       30.09F
STARK FALLS*     N/A     77 N/A N/A SW6         N/A
WATERTOWN      MOSUNNY   72  59  63 SW9       30.11S
FT DRUM        MOSUNNY   75  58  55 SW15      30.10S
ALBANY         PTSUNNY   79  58  48 S9        30.11F
GLENS FALLS    PTSUNNY   79  57  46 SW12      30.09F

$$
NHZ002-005-011-292100-
_____NEW HAMPSHIRE_____


CITY           SKY/WX    TMP DP  RH WIND       PRES   REMARKS
LEBANON        MOSUNNY   78  57  48 SW8       30.09F
KEENE          PTSUNNY   77  57  50 SW8       30.11F
MT WASHINGTON  FOG       55  50  82 W13         N/A  VSB 1/4
PLYMOUTH       FAIR      77  55  45 CALM      30.08F
WHITEFIELD     SUNNY     74  57  55 NW7       30.11F

$$

_____REGIONAL QUEBEC LOCATIONS_____


CITY           SKY/WX    TMP DP  RH WIND       PRES   REMARKS
MONTREAL       CLOUDY    73  59  60 SW8       30.07F
QUEBEC CITY    PTSUNNY   70  59  68 SW12      30.03F
SHERBROOKE     MOSUNNY   72  55  56 SW9G17    30.10S

_____REGIONAL ONTARIO LOCATIONS_____


CITY           SKY/WX    TMP DP  RH WIND       PRES   REMARKS
OTTAWA         CLOUDY    72  59  64 SW12      30.08S

______KEY______
VSB  - VISIBILITY IN MILES
WCI  - WIND CHILL INDEX
HX   - HEAT INDEX
$$
NNNN


USA.gov is the U.S. government's official web portal to all federal, state and local government web resources and services.